Location: ???? ?????
(37.9132°N, 22.9869°E)
Time: 17:14:28
(UTC+00:00)

Meteor 2-3 Rocket - Pass Details

Date: 04 August 2024
Orbit: 844 x 881 km, 81.2° (Epoch: 19 September)

Event Time Altitude Azimuth Distance (km) Brightness Sun altitude
Exits shadow 19:31:47 34° 166° (SSE) 1,368 4.3 -20.4°
Maximum altitude 19:34:12 66° 96° (E) 928 3.6 -20.8°
Drops below altitude 10° 19:39:45 10° 15° (NNE) 2,475 6.5 -21.6°
Sets 19:42:11 0° 13° (NNE) 3,412 7.3 -21.9°
